TimeEST,TemperatureF,Dew PointF,Humidity,Sea Level PressureIn,VisibilityMPH,Wind Direction,Wind SpeedMPH,Gust SpeedMPH,PrecipitationIn,Events,Conditions,WindDirDegrees,DateUTC
12:52 AM,19.9,12.9,74,29.68,9.0,SW,8.1,-,0.00,Snow,Light Snow,230,2001-12-31 05:52:00
1:30 AM,19.4,12.2,74,29.64,7.0,SW,6.9,-,0.00,Snow,Light Snow,220,2001-12-31 06:30:00
1:52 AM,19.9,14.0,78,29.70,8.0,SSW,6.9,-,0.00,Snow,Light Snow,210,2001-12-31 06:52:00
1:59 AM,19.4,12.2,74,29.65,6.0,SW,6.9,-,0.00,Snow,Light Snow,220,2001-12-31 06:59:00
2:52 AM,19.9,14.0,78,29.70,10.0,Variable,5.8,-,0.00,,Overcast,0,2001-12-31 07:52:00
3:52 AM,19.9,14.0,78,29.70,10.0,Variable,3.5,-,N/A,,Overcast,0,2001-12-31 08:52:00
4:52 AM,19.9,14.0,78,29.70,10.0,SW,6.9,-,N/A,,Overcast,220,2001-12-31 09:52:00
5:52 AM,19.9,12.9,74,29.70,10.0,WSW,8.1,-,N/A,,Overcast,250,2001-12-31 10:52:00
6:52 AM,19.9,12.0,71,29.71,10.0,WSW,10.4,18.4,N/A,,Overcast,240,2001-12-31 11:52:00
7:52 AM,19.9,10.9,68,29.74,10.0,SW,11.5,-,N/A,,Overcast,230,2001-12-31 12:52:00
8:52 AM,21.0,10.9,65,29.75,10.0,WSW,8.1,-,N/A,,Mostly Cloudy,250,2001-12-31 13:52:00
9:52 AM,23.0,12.0,63,29.75,10.0,WSW,12.7,20.7,N/A,,Overcast,240,2001-12-31 14:52:00
10:52 AM,23.0,12.0,63,29.74,10.0,West,8.1,-,N/A,,Overcast,260,2001-12-31 15:52:00
11:52 AM,25.0,10.9,55,29.71,10.0,SW,8.1,18.4,N/A,,Mostly Cloudy,230,2001-12-31 16:52:00
12:52 PM,24.1,14.0,65,29.71,10.0,SW,12.7,-,N/A,,Overcast,220,2001-12-31 17:52:00
1:52 PM,26.1,10.9,53,29.70,10.0,WSW,11.5,19.6,N/A,,Overcast,250,2001-12-31 18:52:00
2:52 PM,26.1,12.0,55,29.73,10.0,WSW,9.2,-,N/A,,Mostly Cloudy,250,2001-12-31 19:52:00
3:52 PM,24.1,17.1,75,29.75,1.2,WNW,8.1,-,0.00,Snow,Light Snow,290,2001-12-31 20:52:00
3:58 PM,23.0,19.4,86,29.70,0.8,WNW,8.1,-,0.00,Snow,Light Snow,290,2001-12-31 20:58:00
4:11 PM,21.2,21.2,100,29.70,0.2,WNW,4.6,-,0.00,Fog-Snow,Heavy Snow,290,2001-12-31 21:11:00
4:22 PM,21.2,19.4,93,29.70,1.0,Variable,4.6,-,0.00,Snow,Light Snow,0,2001-12-31 21:22:00
4:36 PM,21.2,19.4,93,29.70,1.5,SW,3.5,-,0.00,Snow,Light Snow,230,2001-12-31 21:36:00
4:39 PM,21.2,19.4,93,29.70,3.0,Variable,3.5,-,0.00,Snow,Light Snow,0,2001-12-31 21:39:00
4:52 PM,21.9,16.0,78,29.76,10.0,West,8.1,-,0.00,,Mostly Cloudy,270,2001-12-31 21:52:00
5:52 PM,23.0,15.1,72,29.78,9.0,West,10.4,-,0.00,,Mostly Cloudy,260,2001-12-31 22:52:00
6:04 PM,21.2,17.6,86,29.73,1.8,WNW,16.1,21.9,0.00,Snow,Light Snow,300,2001-12-31 23:04:00
6:08 PM,21.2,17.6,86,29.74,0.8,WNW,10.4,21.9,0.00,Snow,Light Snow,300,2001-12-31 23:08:00
6:16 PM,19.4,17.6,93,29.74,0.5,NW,8.1,16.1,0.01,Fog-Snow,Snow,310,2001-12-31 23:16:00
6:26 PM,19.4,17.6,93,29.74,0.8,WNW,9.2,-,0.01,Snow,Light Snow,300,2001-12-31 23:26:00
6:29 PM,19.4,15.8,86,29.74,1.5,WNW,9.2,-,0.01,Snow,Light Snow,290,2001-12-31 23:29:00
6:33 PM,19.4,15.8,86,29.74,3.0,Variable,6.9,-,0.01,Snow,Light Snow,0,2001-12-31 23:33:00
6:52 PM,19.9,10.9,68,29.82,4.0,West,11.5,23.0,0.01,Snow,Light Snow,280,2001-12-31 23:52:00
7:52 PM,18.0,9.0,68,29.85,10.0,West,9.2,-,0.00,,Clear,280,2002-01-01 00:52:00
8:52 PM,15.1,8.1,74,29.86,10.0,Calm,Calm,-,N/A,,Clear,0,2002-01-01 01:52:00
9:52 PM,9.0,6.1,88,29.87,10.0,West,3.5,-,N/A,,Clear,280,2002-01-01 02:52:00
10:52 PM,5.0,3.0,92,29.88,10.0,Calm,Calm,-,N/A,,Mostly Cloudy,0,2002-01-01 03:52:00
11:52 PM,1.9,-0.9,88,29.88,9.0,Calm,Calm,-,N/A,,Partly Cloudy,0,2002-01-01 04:52:00